Stations météo

Publicité
Bournemouth Airport, Grande-Bretagne (3862): Température de l'air & dewpoint: 15.01.2018 14:00:00 - 21.01.2018 14:00:00 (GMT)Bournemouth Airport, Grande-Bretagne (3862): Température de l'air -20cm & Température de l'air -100cm: 15.01.2018 14:00:00 - 21.01.2018 14:00:00 (GMT)Bournemouth Airport, Grande-Bretagne (3862): Vitesse du vent & gusts: 15.01.2018 14:00:00 - 21.01.2018 14:00:00 (GMT)Bournemouth Airport, Grande-Bretagne (3862): Direction du vent: 15.01.2018 14:00:00 - 21.01.2018 14:00:00 (GMT)Bournemouth Airport, Grande-Bretagne (3862): reduced air pressure: 15.01.2018 14:00:00 - 21.01.2018 14:00:00 (GMT)Bournemouth Airport, Grande-Bretagne (3862): visibility: 15.01.2018 14:00:00 - 21.01.2018 14:00:00 (GMT)Bournemouth Airport, Grande-Bretagne (3862): Ensoleillement: 15.01.2018 14:00:00 - 21.01.2018 14:00:00 (GMT)Bournemouth Airport, Grande-Bretagne (3862): Quantités de précipitations: 15.01.2018 14:00:00 - 21.01.2018 14:00:00 (GMT)
Date & Time tt [°C] td [°C] tt -20cm [°C] tt -100cm [°C] ff [km/h] ff [knt] fx [km/h] fx [knt] dd ppp [hPa] vv [km] sd [min] rr [mm]
21.01.2018 14:00:00 9,5 9,3 - - 4 2 - - SSE 1009,5 3,0 0 1,0
21.01.2018 13:00:00 8,5 8,3 - - 16 9 - - - 1010,3 4,0 0 0,4
21.01.2018 12:00:00 7,3 7,1 - - 22 12 - - SE 1011,2 4,0 0 1,0
21.01.2018 11:00:00 6,7 6,5 - - 21 11 - - SE 1012,3 3,5 0 2,0
21.01.2018 10:00:00 5,0 4,7 - - 11 6 - - E 1013,5 3,0 0 2,6
21.01.2018 09:00:00 4,4 4,1 - - 16 9 - - ESE 1013,8 2,5 0 1,0
21.01.2018 08:00:00 4,2 3,8 - - 9 5 - - ESE 1014,6 1,5 0 0,4
21.01.2018 07:00:00 3,3 2,6 - - 8 4 - - ESE 1014,4 8 0 0,0
21.01.2018 06:00:00 3,0 2,3 - - 2 1 - - - 1014,8 9 0 0,2
21.01.2018 05:00:00 3,0 2,3 - - 2 1 - - NW 1015,2 7 0 0,0
21.01.2018 04:00:00 3,0 2,2 - - 2 1 - - SSE 1014,5 11 0 0,0
21.01.2018 03:00:00 2,9 1,9 - - 2 1 - - WNW 1014,8 12 0 0,0
21.01.2018 02:00:00 3,2 2,0 - - 5 3 - - NNE 1014,2 13 0 0,0
21.01.2018 01:00:00 3,2 2,0 - - 9 5 - - NNE 1013,8 14 0 0,0
21.01.2018 00:00:00 3,2 1,8 - - 13 7 - - N 1012,8 17 - 0,0
20.01.2018 23:00:00 3,4 2,2 - - 9 5 - - NNW 1011,3 18 0 0,0
20.01.2018 22:00:00 4,3 2,9 - - 18 10 - - N 1010,0 10 0 0,0
20.01.2018 21:00:00 5,4 4,2 - - 13 7 - - NNW 1008,4 10 0 0,0
20.01.2018 20:00:00 6,2 5,0 - - 16 9 - - NW 1006,1 10 0 0,0
20.01.2018 19:00:00 8,4 7,0 - - 28 15 46 25 NNW 1003,7 9 0 0,2
20.01.2018 18:00:00 9,9 7,8 - - 26 14 - - WNW 1001,5 10 0 0,0
20.01.2018 17:00:00 10,0 8,2 - - 28 15 48 26 WNW 999,9 18 0 0,0
20.01.2018 16:00:00 10,4 8,8 - - 22 12 - - WNW 998,5 10 18 0,0
20.01.2018 15:00:00 8,9 8,5 - - 4 2 - - WSW 997,9 6 0 0,8
20.01.2018 14:00:00 8,9 8,0 - - 11 6 - - W 997,8 5 6 0,2
20.01.2018 13:00:00 8,6 8,0 - - 11 6 - - WSW 998,2 10 0 0,0
20.01.2018 12:00:00 8,1 7,5 - - 9 5 - - SSW 998,6 10 0 0,0
20.01.2018 11:00:00 7,9 7,3 - - 8 4 - - S 999,1 9 0 0,0
20.01.2018 10:00:00 7,2 6,8 - - 5 3 - - - 998,6 10 0 0,2
20.01.2018 09:00:00 6,7 6,2 - - 5 3 - - SE 998,9 3,5 0 0,0
20.01.2018 08:00:00 6,5 6,2 - - 9 5 - - SSE 999,0 8 0 0,4
20.01.2018 07:00:00 6,3 5,9 - - 15 8 - - ESE 999,9 7 0 0,6
20.01.2018 06:00:00 6,0 5,3 - - 11 6 - - SE 1001,4 5 0 0,2
20.01.2018 05:00:00 5,5 4,7 - - 9 5 - - SSE 1002,9 24 0 0,2
20.01.2018 04:00:00 5,3 4,1 - - 8 4 - - S 1004,9 12 0 0,2
20.01.2018 03:00:00 5,5 3,3 - - 8 4 - - SW 1006,7 23 0 0,0
20.01.2018 02:00:00 5,3 3,2 - - 8 4 - - SW 1008,2 18 0 0,0
20.01.2018 01:00:00 4,8 2,8 - - 8 4 - - WSW 1009,3 20 0 0,0
20.01.2018 00:00:00 4,1 2,5 - - 5 3 - - WSW 1010,2 20 - 0,0
19.01.2018 23:00:00 3,8 1,9 - - 13 7 - - W 1010,6 30 0 0,0
19.01.2018 22:00:00 3,3 1,5 - - 16 9 - - W 1010,8 27 0 0,0
19.01.2018 21:00:00 2,3 0,6 - - 15 8 - - W 1011,3 10 0 0,0
19.01.2018 20:00:00 3,0 1,2 - - 18 10 - - W 1011,5 10 0 0,0
19.01.2018 19:00:00 3,4 1,3 - - 16 9 - - W 1011,3 10 0 0,0
19.01.2018 18:00:00 3,8 1,3 - - 21 11 - - W 1011,2 10 0 0,0
19.01.2018 17:00:00 3,4 1,0 - - 15 8 - - W 1011,3 10 0 0,0
19.01.2018 16:00:00 5,1 1,6 - - 24 13 - - W 1011,0 10 36 0,0
19.01.2018 15:00:00 4,1 2,6 - - 11 6 52 28 WSW 1010,8 10 6 0,8
19.01.2018 14:00:00 8,4 2,5 - - 22 12 - - W 1010,7 10 42 0,0
19.01.2018 13:00:00 7,5 1,8 - - 21 11 - - W 1011,3 10 54 0,0
19.01.2018 12:00:00 7,1 2,0 - - 24 13 - - W 1011,6 10 60 0,0
19.01.2018 11:00:00 6,1 1,8 - - 21 11 - - W 1011,8 10 60 0,0
19.01.2018 10:00:00 3,7 1,7 - - 13 7 - - W 1011,3 10 54 0,0
19.01.2018 09:00:00 0,2 -0,5 - - 9 5 - - W 1011,1 10 0 0,0
19.01.2018 08:00:00 0,4 -0,4 - - 13 7 - - WSW 1010,6 10 0 0,0
19.01.2018 07:00:00 -2,3 -3,0 - - 13 7 - - W 1010,4 10 0 0,0
19.01.2018 06:00:00 0,2 -0,3 - - 2 1 - - NNE 1010,2 10 0 0,0
19.01.2018 05:00:00 -0,1 -1,2 - - 11 6 - - WSW 1009,8 30 0 0,0
19.01.2018 04:00:00 0,7 -0,4 - - 13 7 - - W 1009,7 40 0 0,0
19.01.2018 03:00:00 1,9 -0,3 - - 13 7 - - WSW 1009,4 35 0 0,0
19.01.2018 02:00:00 3,1 0,9 - - 11 6 - - W 1009,2 30 0 0,0
19.01.2018 01:00:00 2,0 0,0 - - 11 6 - - WSW 1009,1 30 0 0,0
19.01.2018 00:00:00 2,5 0,4 - - 13 7 - - W 1009,0 35 - 0,0
18.01.2018 23:00:00 2,6 0,2 - - 15 8 - - W 1008,7 35 0 0,0
18.01.2018 22:00:00 1,5 -0,8 - - 13 7 - - W 1008,3 10 0 0,0
18.01.2018 21:00:00 2,1 -0,6 - - 11 6 - - W 1008,0 10 0 0,0
18.01.2018 20:00:00 4,5 1,0 - - 26 14 - - WNW 1007,2 10 0 0,0
18.01.2018 19:00:00 5,1 1,4 - - 26 14 - - WNW 1006,7 10 0 0,0
18.01.2018 18:00:00 4,7 2,0 - - 22 12 - - W 1005,9 10 0 0,0
18.01.2018 17:00:00 6,0 2,0 - - 34 18 48 26 WNW 1005,4 10 0 0,0
18.01.2018 16:00:00 7,2 4,1 - - 21 11 - - W 1004,5 10 36 0,0
18.01.2018 15:00:00 7,4 5,4 - - 13 7 - - W 1004,0 10 24 0,4
18.01.2018 14:00:00 5,5 4,2 - - 28 15 61 33 NW 1004,5 8 36 1,0
18.01.2018 13:00:00 8,7 4,0 - - 29 16 - - W 1004,1 10 54 0,0
18.01.2018 12:00:00 9,4 4,0 - - 29 16 - - W 1004,5 10 54 0,0
18.01.2018 11:00:00 9,2 4,4 - - 26 14 - - W 1004,6 10 60 0,0
18.01.2018 10:00:00 8,0 3,7 - - 18 10 - - W 1004,3 10 48 0,0
18.01.2018 09:00:00 7,4 3,5 - - 24 13 - - W 1003,8 10 0 0,0
18.01.2018 08:00:00 7,4 2,8 - - 24 13 55 30 WNW 1002,6 10 0 0,0
18.01.2018 07:00:00 8,2 3,2 - - 31 17 70 38 WNW 1001,5 10 0 0,0
18.01.2018 06:00:00 9,2 3,1 - - 41 22 72 39 WNW 1000,3 18 0 0,0
18.01.2018 05:00:00 10,1 4,4 - - 52 28 83 45 W 998,6 15 0 0,0
18.01.2018 04:00:00 11,5 7,0 - - 52 28 68 37 W 997,6 24 0 0,0
18.01.2018 03:00:00 10,9 8,6 - - 44 24 70 38 W 997,4 27 0 0,2
18.01.2018 02:00:00 10,6 9,7 - - 42 23 78 42 W 997,7 11 0 0,0
18.01.2018 01:00:00 10,3 9,2 - - 48 26 80 43 WSW 998,6 5 0 0,0
18.01.2018 00:00:00 10,1 8,9 - - 50 27 83 45 WSW 1000,1 12 - 0,8
17.01.2018 23:00:00 9,0 8,1 - - 39 21 57 31 SW 1002,4 9 0 1,4
17.01.2018 22:00:00 7,8 6,2 - - 26 14 - - SW 1004,6 7 0 0,0
17.01.2018 21:00:00 7,4 4,4 - - 16 9 - - WSW 1007,5 10 0 0,0
17.01.2018 20:00:00 6,9 3,9 - - 18 10 - - WSW 1009,2 10 0 0,0
17.01.2018 19:00:00 5,5 2,7 - - 15 8 - - WSW 1010,7 10 0 0,0
17.01.2018 18:00:00 5,6 2,0 - - 16 9 - - WSW 1010,5 10 0 0,0
17.01.2018 17:00:00 5,3 1,6 - - 15 8 - - WSW 1011,6 10 0 0,0
17.01.2018 16:00:00 6,3 1,6 - - 28 15 - - W 1011,8 10 48 0,0
17.01.2018 15:00:00 7,5 1,2 - - 29 16 46 25 W 1011,6 10 18 0,0
17.01.2018 14:00:00 7,4 1,9 - - 28 15 55 30 W 1011,7 10 36 0,0
17.01.2018 13:00:00 7,8 1,6 - - 28 15 50 27 WNW 1011,6 10 36 0,0
17.01.2018 12:00:00 7,6 1,5 - - 34 18 48 26 W 1011,5 10 60 0,0
17.01.2018 11:00:00 6,6 1,4 - - 28 15 50 27 W 1011,2 10 60 0,0
17.01.2018 10:00:00 5,7 0,4 - - 41 22 57 31 W 1010,5 10 48 0,0
17.01.2018 09:00:00 4,2 -0,2 - - 18 10 - - W 1009,4 10 0 0,0
17.01.2018 08:00:00 4,3 -0,5 - - 28 15 46 25 WNW 1008,3 10 0 0,0
17.01.2018 07:00:00 4,3 -1,0 - - 28 15 52 28 WNW 1007,1 10 0 0,0
17.01.2018 06:00:00 4,0 -0,4 - - 28 15 - - WNW 1005,7 10 0 0,0
17.01.2018 05:00:00 2,9 -0,4 - - 24 13 48 26 W 1004,7 30 0 0,0
17.01.2018 04:00:00 3,0 -0,1 - - 31 17 67 36 WNW 1003,2 30 0 0,0
17.01.2018 03:00:00 3,2 -0,4 - - 24 13 68 37 W 1002,3 35 0 0,0
17.01.2018 02:00:00 3,6 -0,6 - - 31 17 48 26 W 1001,0 35 0 0,0
17.01.2018 01:00:00 2,7 0,5 - - 21 11 - - WNW 1000,5 23 0 0,0
17.01.2018 00:00:00 2,6 0,8 - - 35 19 61 33 WNW 1000,5 35 - 0,2
16.01.2018 23:00:00 2,3 0,8 - - 22 12 46 25 W 999,7 50 0 0,2
16.01.2018 22:00:00 2,2 0,5 - - 41 22 67 36 WNW 999,4 6 0 0,4
16.01.2018 21:00:00 3,2 1,3 - - 22 12 48 26 W 997,9 10 0 0,2
16.01.2018 20:00:00 3,1 0,8 - - 21 11 - - W 997,9 10 0 0,0
16.01.2018 19:00:00 4,4 2,3 - - 26 14 54 29 W 998,0 10 0 0,0
16.01.2018 18:00:00 4,3 2,1 - - 26 14 48 26 WSW 997,3 10 0 0,0
16.01.2018 17:00:00 4,8 2,5 - - 28 15 - - W 997,6 10 0 0,0
16.01.2018 16:00:00 5,2 2,5 - - 21 11 - - WSW 998,1 10 6 0,0
16.01.2018 15:00:00 5,1 2,6 - - 29 16 65 35 WNW 999,0 10 0 0,6
16.01.2018 14:00:00 6,7 3,4 - - 16 9 - - W 999,0 10 24 0,0
16.01.2018 13:00:00 5,9 3,5 - - 21 11 - - W 999,5 35 36 0,0
16.01.2018 12:00:00 4,7 3,1 - - 31 17 50 27 NW 1000,5 13 24 0,8
16.01.2018 11:00:00 5,0 3,0 - - 22 12 48 26 NW 1000,7 10 6 0,2
16.01.2018 10:00:00 6,0 3,3 - - 18 10 - - WSW 999,4 10 36 0,0
16.01.2018 09:00:00 4,5 2,3 7,2 7,5 18 10 - - W 999,2 10 0 0,0
16.01.2018 08:00:00 4,3 2,4 - - 18 10 46 25 WNW 998,9 10 0 0,6
16.01.2018 07:00:00 6,0 2,9 - - 26 14 - - W 998,1 10 0 0,0
16.01.2018 06:00:00 5,7 2,7 - - 15 8 - - W 997,2 22 0 0,0
16.01.2018 05:00:00 6,3 2,6 - - 28 15 46 25 WNW 996,8 23 0 0,0
16.01.2018 04:00:00 5,6 4,2 - - 21 11 68 37 W 996,7 29 0 1,0
16.01.2018 03:00:00 7,2 4,3 - - 29 16 46 25 WNW 996,2 25 0 0,2
16.01.2018 02:00:00 6,7 4,6 - - 21 11 46 25 W 996,1 21 0 0,0
16.01.2018 01:00:00 7,8 5,2 - - 28 15 46 25 W 996,5 20 0 0,0
16.01.2018 00:00:00 7,3 4,7 - - 18 10 - - W 997,2 22 - 0,0
15.01.2018 23:00:00 7,0 4,7 - - 24 13 - - W 997,2 20 0 0,2
15.01.2018 22:00:00 6,2 4,3 - - 15 8 - - W 997,7 10 0 0,0
15.01.2018 21:00:00 7,2 5,7 - - 15 8 - - NW 997,8 10 0 0,2
15.01.2018 20:00:00 7,6 5,2 - - 15 8 - - WSW 997,5 10 0 0,0
15.01.2018 19:00:00 7,1 4,2 - - 16 9 - - W 997,5 10 0 0,0
15.01.2018 18:00:00 7,6 4,3 - - 18 10 - - WNW 997,7 10 0 0,0
15.01.2018 17:00:00 8,1 5,7 - - 22 12 - - W 997,2 10 6 0,0
15.01.2018 16:00:00 9,3 6,5 - - 24 13 55 30 WNW 996,5 10 6 0,4
15.01.2018 15:00:00 11,2 7,8 - - 28 15 54 29 WNW 995,4 10 6 0,0
15.01.2018 14:00:00 11,2 9,9 - - 28 15 59 32 W 994,8 10 24 0,2

tt = Température de l'air
td = dewpoint
tt -20cm = Température de l'air -20cm
tt -100cm = Température de l'air -100cm
ff = Vitesse du vent
fx = gusts
dd = Direction du vent
ppp = reduced air pressure
vv = visibility
sd = Ensoleillement
rr = Quantités de précipitations

stations d'obs. à proximité